Zurück zum Katalog

STARLINK-32427

AktivKommunikationVLEO
NORAD 61848·PAYLOAD·🇺🇸 United States

Gestartet Nov 7, 2024 von Cape Canaveral Space Force Station

Loading…

Nächste Überflüge (nächste 24 Stunden)

TLE

AktuellSource: CelesTrak SupGP

Epoche: Sep 14, 2026, 20:56 UTC

1 61848C 24202D   26257.87270833  .00030697  00000+0  11122-2 0  2577
2 61848  42.9992 238.4870 0001434 264.6398 287.5098 15.27553071    12

Verfolge STARLINK-32427 in Echtzeit mit AllMySat

Download on the App Store